Content
SEND FEEDBACK

Daily
Averages
Monthly
Summary
Slovakia

HURBANOVO, SLOVAKIA


Home > Europe > Slovakia
Elevation: 351 feet     Latitude: 47 52N     Longitude: 018 12E

WEATHER
 
SELECT A DAY
Number of Records: 30,018;   Date Range: 7/7/10 - 9/19/14
 
SHARE

PRINT THIS DATA

[ ← Previous Day ]
WEATHER ALMANAC - JANUARY 31, 2013
[ Next Day → ]
[ °C ]   °F
Weather ElementAverageHighLow
Temperature43.2 °F51 °F (1:00 pm)37 °F (8:00 pm)
Dewpoint31.9 °F38 °F (1:00 am)28 °F (11:00 pm)
Humidity55.7 %88 % (1:00 am)34 % (1:00 pm)
Barometer29.98 in30.07 in (11:00 am)29.86 in (1:00 am)
Wind Speed8.7 mph13.4 mph (1:00 am)
Weather ElementAverage
Visibility30.6 mi
Wind DirectionWSW (261.1 °)

Weather ElementTotal
Precipitation---
Heating Degree Days21 (Base 65)
Averaged from 21 records on January 31, 2013
WEATHER CONDITIONS BREAKOUT
WIND DIRECTION BREAKOUT
WEATHER BY HOUR - JANUARY 31, 2013
[ °C ]   °F
Local TimeTemperatureDewpointHumidityBarometerVisibilityWind DirectionWind SpeedGust SpeedPrecipitationEventsConditions
1:00 AM40.0 °F38.0 °F88 %29.86 inWest (280°)13.4 mph
4:00 AM42.0 °F36.0 °F71 %29.94 inNW (310°)11.2 mph
5:00 AM40.0 °F35.0 °F75 %29.96 inWest (280°)6.7 mph
6:00 AM40.0 °F34.0 °F70 %29.96 inWest (280°)8.9 mph
7:00 AM38.0 °F33.0 °F76 %30.00 in22.0 mi°4.5 mphPartly Cloudy
8:00 AM40.0 °F33.0 °F67 %30.00 in28.0 miWest (280°)13.4 mphScattered Clouds
9:00 AM41.0 °F33.0 °F64 %30.03 in31.0 miWest (280°)4.5 mphScattered Clouds
10:00 AM47.0 °F32.0 °F44 %30.05 in31.0 miWest (280°)13.4 mphScattered Clouds
11:00 AM49.0 °F31.0 °F37 %30.07 in31.0 miWest (280°)11.2 mphScattered Clouds
12:00 PM49.0 °F30.0 °F35 %30.06 in31.0 miWNW (290°)6.7 mphClear
1:00 PM51.0 °F31.0 °F34 %30.04 in34.0 miWest (260°)6.7 mphScattered Clouds
2:00 PM51.0 °F31.0 °F34 %30.04 in34.0 miWest (270°)11.2 mphScattered Clouds
3:00 PM47.0 °F32.0 °F44 %30.01 in40.0 miWest (280°)11.2 mphMostly Cloudy
4:00 PM45.0 °F32.0 °F50 %29.99 in40.0 miWNW (290°)6.7 mphScattered Clouds
5:00 PM42.0 °F31.0 °F53 %29.97 in31.0 mi°4.5 mphScattered Clouds
6:00 PM41.0 °F30.0 °F55 %South (190°)6.7 mph
7:00 PM38.0 °F30.0 °F64 %29.93 in25.0 miSSE (160°)4.5 mphOvercast
8:00 PM37.0 °F30.0 °F68 %29.93 in25.0 miSSW (210°)6.7 mphOvercast
9:00 PM38.0 °F30.0 °F65 %29.91 in25.0 miSW (220°)6.7 mphPartly Cloudy
10:00 PM46.0 °F29.0 °F38 %29.89 inWest (260°)11.2 mph
11:00 PM46.0 °F28.0 °F37 %29.88 inWest (260°)13.4 mph
Hourly data recorded from 11858, located miles away from Hurbanovo, Slovakia







STORIES FROM OUR PARTNERS